This is the latest recevied weather packets stored in our database for station/object OK3MS-5. If no packets are shown the sender has not sent any weather packets the latest 10 day(s).
| Time | Temp. | Humidity | Pressure | Rain* | Wind** | Luminosity | Snow |
|---|---|---|---|---|---|---|---|
| 1777151704 | 12.22° C | 37% | 1013.8 hPa | 0 mm | - | 0 W/m² | - |
| 1777151410 | 12.78° C | 35% | 1013.6 hPa | 0 mm | - | 0 W/m² | - |
| 1777151105 | 12.78° C | 36% | 1013.6 hPa | 0 mm | - | 0 W/m² | - |
| 1777150502 | 12.22° C | 36% | 1013.5 hPa | 0 mm | - | 0 W/m² | - |
| 1777150209 | 12.22° C | 37% | 1013.6 hPa | 0 mm | - | 0 W/m² | - |
| 1777149903 | 12.22° C | 37% | 1013.4 hPa | 0 mm | - | 0 W/m² | - |
| 1777149609 | 12.22° C | 37% | 1013.5 hPa | 0 mm | - | 0 W/m² | - |
| 1777149304 | 12.78° C | 36% | 1013.5 hPa | 0 mm | - | 0 W/m² | - |
| 1777149005 | 13.33° C | 34% | 1013.3 hPa | 0 mm | - | 0 W/m² | - |
| 1777148404 | 13.33° C | 33% | 1013.2 hPa | 0 mm | - | 0 W/m² | - |
| 1777148104 | 13.89° C | 32% | 1013.2 hPa | 0 mm | - | 0 W/m² | - |
| 1777147803 | 13.89° C | 32% | 1013.1 hPa | 0 mm | - | 0 W/m² | - |
| 1777147504 | 14.44° C | 31% | 1013 hPa | 0 mm | - | 0 W/m² | - |
| 1777147205 | 14.44° C | 31% | 1012.9 hPa | 0 mm | - | 0 W/m² | - |
| 1777146909 | 14.44° C | 31% | 1012.9 hPa | 0 mm | - | 0 W/m² | - |
| 1777146603 | 13.89° C | 32% | 1012.9 hPa | 0 mm | - | 0 W/m² | - |
| 1777146306 | 13.89° C | 32% | 1013 hPa | 0 mm | - | 0 W/m² | - |
| 1777146003 | 14.44° C | 32% | 1012.9 hPa | 0 mm | - | 0 W/m² | - |
| 1777145703 | 13.89° C | 30% | 1013 hPa | 0 mm | - | 0 W/m² | - |
| 1777145404 | 13.89° C | 31% | 1012.9 hPa | 0 mm | - | 0 W/m² | - |
| 1777145104 | 14.44° C | 31% | 1012.8 hPa | 0 mm | - | 0 W/m² | - |
| 1777144805 | 14.44° C | 30% | 1012.8 hPa | 0 mm | - | 0 W/m² | - |
| 1777144504 | 14.44° C | 30% | 1012.9 hPa | 0 mm | - | 0 W/m² | - |
| 1777144204 | 13.89° C | 30% | 1012.9 hPa | 0 mm | - | 0 W/m² | - |
| 1777143905 | 13.89° C | 31% | 1012.9 hPa | 0 mm | - | 0 W/m² | - |
* Rain latest hour (hover to see other rain measurements)
** Current wind speed in m/s (hover to see current wind gust speed)